Year,Month,Day,Hour,Minute,Value (Times are PST for temperature in C)
2012,06,25,00,00,7.80
2012,06,25,00,01,7.80
2012,06,25,00,02,7.80
2012,06,25,00,03,7.80
2012,06,25,00,04,7.80
2012,06,25,00,05,7.80
2012,06,25,00,06,7.80
2012,06,25,00,07,7.80
2012,06,25,00,08,7.80
2012,06,25,00,09,7.80
2012,06,25,00,10,7.70
2012,06,25,00,11,7.70
2012,06,25,00,12,7.70
2012,06,25,00,13,7.70
2012,06,25,00,17,7.70
2012,06,25,00,18,7.70
2012,06,25,00,19,7.70
2012,06,25,00,20,7.70
2012,06,25,00,21,7.60
2012,06,25,00,22,7.60
2012,06,25,00,23,7.60
2012,06,25,00,24,7.60
2012,06,25,00,25,7.60
2012,06,25,00,26,7.60
2012,06,25,00,27,7.50
2012,06,25,00,28,7.50
2012,06,25,00,29,7.50
2012,06,25,00,30,7.50
2012,06,25,00,31,7.50
2012,06,25,00,32,7.50
2012,06,25,00,33,7.50
2012,06,25,00,34,7.50
2012,06,25,00,35,7.50
2012,06,25,00,36,7.50
2012,06,25,00,37,7.50
2012,06,25,00,38,7.50
2012,06,25,00,39,7.40
2012,06,25,00,40,7.40
2012,06,25,00,41,7.50
2012,06,25,00,42,7.40
2012,06,25,00,43,7.40
2012,06,25,00,44,7.40
2012,06,25,00,45,7.40
2012,06,25,00,46,7.40
2012,06,25,00,47,7.40
2012,06,25,00,48,7.40
2012,06,25,00,49,7.40
2012,06,25,00,50,7.40
2012,06,25,00,51,7.30
2012,06,25,00,52,7.30
2012,06,25,00,53,7.30
2012,06,25,00,54,7.30
2012,06,25,00,55,7.30
2012,06,25,00,56,7.30
2012,06,25,00,57,7.30
2012,06,25,00,58,7.30
2012,06,25,00,59,7.30
2012,06,25,01,00,7.30
2012,06,25,01,01,7.30
2012,06,25,01,02,7.30
2012,06,25,01,03,7.30
2012,06,25,01,04,7.30
2012,06,25,01,05,7.30
2012,06,25,01,06,7.30
2012,06,25,01,07,7.30
2012,06,25,01,08,7.30
2012,06,25,01,09,7.30
2012,06,25,01,10,7.30
2012,06,25,01,11,7.20
2012,06,25,01,12,7.20
2012,06,25,01,13,7.20
2012,06,25,01,14,7.20
2012,06,25,01,15,7.20
2012,06,25,01,16,7.20
2012,06,25,01,17,7.20
2012,06,25,01,18,7.10
2012,06,25,01,19,7.10
2012,06,25,01,20,7.10
2012,06,25,01,21,7.10
2012,06,25,01,22,7.10
2012,06,25,01,23,7.00
2012,06,25,01,24,7.00
2012,06,25,01,25,7.00
2012,06,25,01,26,7.00
2012,06,25,01,27,7.00
2012,06,25,01,28,7.00
2012,06,25,01,29,7.00
2012,06,25,01,30,7.00
2012,06,25,01,31,7.00
2012,06,25,01,32,6.90
2012,06,25,01,33,6.90
2012,06,25,01,34,6.90
2012,06,25,01,35,6.90
2012,06,25,01,36,6.90
2012,06,25,01,37,6.90
2012,06,25,01,38,6.90
2012,06,25,01,39,6.90
2012,06,25,01,40,6.90
2012,06,25,01,41,6.90
2012,06,25,01,42,6.90
2012,06,25,01,43,6.90
2012,06,25,01,44,6.90
2012,06,25,01,45,6.90
2012,06,25,01,46,7.00
2012,06,25,01,47,7.00
2012,06,25,01,48,7.00
2012,06,25,01,49,7.00
2012,06,25,01,50,7.00
2012,06,25,01,51,7.00
2012,06,25,01,52,6.90
2012,06,25,01,53,6.90
2012,06,25,01,54,6.90
2012,06,25,01,55,6.90
2012,06,25,01,56,6.90
2012,06,25,01,57,6.90
2012,06,25,01,58,6.90
2012,06,25,01,59,6.90
2012,06,25,02,00,6.90
2012,06,25,02,01,6.90
2012,06,25,02,02,6.90
2012,06,25,02,03,6.90
2012,06,25,02,04,6.90
2012,06,25,02,05,6.90
2012,06,25,02,06,6.90
2012,06,25,02,07,6.90
2012,06,25,02,08,6.90
2012,06,25,02,09,6.90
2012,06,25,02,10,6.90
2012,06,25,02,11,6.90
2012,06,25,02,12,6.90
2012,06,25,02,13,6.90
2012,06,25,02,14,6.90
2012,06,25,02,15,6.90
2012,06,25,02,16,6.90
2012,06,25,02,17,6.90
2012,06,25,02,18,6.90
2012,06,25,02,19,6.90
2012,06,25,02,20,6.90
2012,06,25,02,21,6.90
2012,06,25,02,22,6.90
2012,06,25,02,23,6.90
2012,06,25,02,24,6.90
2012,06,25,02,25,6.80
2012,06,25,02,26,6.80
2012,06,25,02,27,6.80
2012,06,25,02,28,6.80
2012,06,25,02,29,6.80
2012,06,25,02,30,6.70
2012,06,25,02,31,6.70
2012,06,25,02,32,6.70
2012,06,25,02,33,6.70
2012,06,25,02,34,6.70
2012,06,25,02,35,6.70
2012,06,25,02,36,6.70
2012,06,25,02,37,6.70
2012,06,25,02,38,6.70
2012,06,25,02,39,6.70
2012,06,25,02,40,6.60
2012,06,25,02,41,6.60
2012,06,25,02,42,6.60
2012,06,25,02,43,6.60
2012,06,25,02,44,6.60
2012,06,25,02,45,6.60
2012,06,25,02,46,6.60
2012,06,25,02,47,6.60
2012,06,25,02,48,6.60
2012,06,25,02,49,6.60
2012,06,25,02,50,6.60
2012,06,25,02,51,6.60
2012,06,25,02,52,6.60
2012,06,25,02,53,6.60
2012,06,25,02,54,6.60
2012,06,25,02,55,6.60
2012,06,25,02,56,6.60
2012,06,25,02,57,6.60
2012,06,25,02,58,6.60
2012,06,25,02,59,6.60
2012,06,25,03,00,6.60
2012,06,25,03,01,6.60
2012,06,25,03,02,6.60
2012,06,25,03,03,6.50
2012,06,25,03,04,6.50
2012,06,25,03,05,6.50
2012,06,25,03,06,6.50
2012,06,25,03,07,6.50
2012,06,25,03,08,6.50
2012,06,25,03,09,6.50
2012,06,25,03,10,6.50
2012,06,25,03,11,6.50
2012,06,25,03,12,6.50
2012,06,25,03,13,6.50
2012,06,25,03,14,6.60
2012,06,25,03,15,6.50
2012,06,25,03,16,6.50
2012,06,25,03,17,6.50
2012,06,25,03,18,6.50
2012,06,25,03,19,6.50
2012,06,25,03,20,6.50
2012,06,25,03,21,6.50
2012,06,25,03,22,6.50
2012,06,25,03,23,6.50
2012,06,25,03,24,6.40
2012,06,25,03,25,6.40
2012,06,25,03,26,6.40
2012,06,25,03,27,6.40
2012,06,25,03,28,6.40
2012,06,25,03,29,6.40
2012,06,25,03,30,6.40
2012,06,25,03,31,6.30
2012,06,25,03,32,6.30
2012,06,25,03,33,6.30
2012,06,25,03,34,6.30
2012,06,25,03,35,6.30
2012,06,25,03,36,6.30
2012,06,25,03,37,6.30
2012,06,25,03,38,6.30
2012,06,25,03,39,6.30
2012,06,25,03,40,6.30
2012,06,25,03,41,6.30
2012,06,25,03,42,6.30
2012,06,25,03,43,6.30
2012,06,25,03,44,6.30
2012,06,25,03,45,6.30
2012,06,25,03,46,6.30
2012,06,25,03,47,6.30
2012,06,25,03,48,6.30
2012,06,25,03,49,6.30
2012,06,25,03,50,6.30
2012,06,25,03,51,6.30
2012,06,25,03,52,6.20
2012,06,25,03,53,6.20
2012,06,25,03,54,6.20
2012,06,25,03,55,6.20
2012,06,25,03,56,6.20
2012,06,25,03,57,6.10
2012,06,25,03,58,6.10
2012,06,25,03,59,6.10
2012,06,25,04,00,6.10
2012,06,25,04,01,6.10
2012,06,25,04,02,6.10
2012,06,25,04,03,6.10
2012,06,25,04,04,6.10
2012,06,25,04,05,6.10
2012,06,25,04,06,6.10
2012,06,25,04,07,6.10
2012,06,25,04,08,6.10
2012,06,25,04,09,6.10
2012,06,25,04,10,6.10
2012,06,25,04,11,6.10
2012,06,25,04,12,6.10
2012,06,25,04,13,6.10
2012,06,25,04,14,6.10
2012,06,25,04,15,6.10
2012,06,25,04,16,6.10
2012,06,25,04,17,6.10
2012,06,25,04,18,6.20
2012,06,25,04,19,6.20
2012,06,25,04,20,6.20
2012,06,25,04,21,6.20
2012,06,25,04,22,6.20
2012,06,25,04,23,6.20
2012,06,25,04,24,6.20
2012,06,25,04,25,6.20
2012,06,25,04,26,6.20
2012,06,25,04,27,6.20
2012,06,25,04,28,6.30
2012,06,25,04,29,6.30
2012,06,25,04,30,6.30
2012,06,25,04,31,6.30
2012,06,25,04,32,6.30
2012,06,25,04,33,6.30
2012,06,25,04,34,6.30
2012,06,25,04,35,6.30
2012,06,25,04,36,6.30
2012,06,25,04,37,6.30
2012,06,25,04,38,6.30
2012,06,25,04,39,6.30
2012,06,25,04,40,6.30
2012,06,25,04,41,6.30
2012,06,25,04,42,6.20
2012,06,25,04,43,6.30
2012,06,25,04,44,6.20
2012,06,25,04,45,6.20
2012,06,25,04,46,6.20
2012,06,25,04,47,6.20
2012,06,25,04,48,6.20
2012,06,25,04,49,6.20
2012,06,25,04,50,6.20
2012,06,25,04,51,6.20
2012,06,25,04,52,6.20
2012,06,25,04,53,6.20
2012,06,25,04,54,6.20
2012,06,25,04,55,6.20
2012,06,25,04,56,6.20
2012,06,25,04,57,6.20
2012,06,25,04,58,6.20
2012,06,25,04,59,6.20
2012,06,25,05,00,6.20
2012,06,25,05,01,6.20
2012,06,25,05,02,6.20
2012,06,25,05,03,6.10
2012,06,25,05,04,6.10
2012,06,25,05,05,6.10
2012,06,25,05,06,6.10
2012,06,25,05,07,6.10
2012,06,25,05,08,6.10
2012,06,25,05,09,6.10
2012,06,25,05,10,6.10
2012,06,25,05,11,6.10
2012,06,25,05,12,6.10
2012,06,25,05,13,6.10
2012,06,25,05,14,6.10
2012,06,25,05,15,6.10
2012,06,25,05,16,6.10
2012,06,25,05,17,6.10
2012,06,25,05,18,6.10
2012,06,25,05,19,6.10
2012,06,25,05,20,6.10
2012,06,25,05,21,6.10
2012,06,25,05,22,6.10
2012,06,25,05,23,6.10
2012,06,25,05,24,6.10
2012,06,25,05,25,6.10
2012,06,25,05,26,6.10
2012,06,25,05,27,6.10
2012,06,25,05,28,6.10
2012,06,25,05,29,6.10
2012,06,25,05,30,6.10
2012,06,25,05,31,6.10
2012,06,25,05,32,6.10
2012,06,25,05,33,6.10
2012,06,25,05,34,6.10
2012,06,25,05,35,6.10
2012,06,25,05,36,6.10
2012,06,25,05,37,6.10
2012,06,25,05,38,6.10
2012,06,25,05,39,6.10
2012,06,25,05,40,6.10
2012,06,25,05,41,6.10
2012,06,25,05,42,6.10
2012,06,25,05,43,6.10
2012,06,25,05,44,6.10
2012,06,25,05,45,6.10
2012,06,25,05,46,6.10
2012,06,25,05,47,6.10
2012,06,25,05,48,6.10
2012,06,25,05,49,6.10
2012,06,25,05,50,6.10
2012,06,25,05,51,6.10
2012,06,25,05,52,6.10
2012,06,25,05,53,6.10
2012,06,25,05,54,6.20
2012,06,25,05,55,6.20
2012,06,25,05,56,6.20
2012,06,25,05,57,6.20
2012,06,25,05,58,6.20
2012,06,25,05,59,6.20
2012,06,25,06,00,6.20
2012,06,25,06,01,6.20
2012,06,25,06,02,6.20
2012,06,25,06,03,6.20
2012,06,25,06,04,6.20
2012,06,25,06,05,6.20
2012,06,25,06,06,6.20
2012,06,25,06,07,6.20
2012,06,25,06,08,6.20
2012,06,25,06,09,6.20
2012,06,25,06,10,6.20
2012,06,25,06,11,6.20
2012,06,25,06,12,6.20
2012,06,25,06,13,6.20
2012,06,25,06,14,6.20
2012,06,25,06,15,6.20
2012,06,25,06,16,6.20
2012,06,25,06,17,6.30
2012,06,25,06,18,6.30
2012,06,25,06,19,6.40
2012,06,25,06,20,6.40
2012,06,25,06,21,6.50
2012,06,25,06,22,6.50
2012,06,25,06,23,6.60
2012,06,25,06,24,6.60
2012,06,25,06,25,6.60
2012,06,25,06,26,6.60
2012,06,25,06,27,6.60
2012,06,25,06,28,6.60
2012,06,25,06,29,6.70
2012,06,25,06,30,6.70
2012,06,25,06,31,6.70
2012,06,25,06,32,6.70
2012,06,25,06,33,6.70
2012,06,25,06,34,6.70
2012,06,25,06,35,6.80
2012,06,25,06,36,6.80
2012,06,25,06,37,6.80
2012,06,25,06,38,6.80
2012,06,25,06,39,6.90
2012,06,25,06,40,6.90
2012,06,25,06,41,6.90
2012,06,25,06,42,6.90
2012,06,25,06,43,7.00
2012,06,25,06,44,7.00
2012,06,25,06,45,7.00
2012,06,25,06,46,7.10
2012,06,25,06,47,7.10
2012,06,25,06,48,7.20
2012,06,25,06,49,7.30
2012,06,25,06,50,7.30
2012,06,25,06,51,7.40
2012,06,25,06,52,7.50
2012,06,25,06,53,7.60
2012,06,25,06,54,7.60
2012,06,25,06,55,7.70
2012,06,25,06,56,7.80
2012,06,25,06,57,7.80
2012,06,25,06,58,7.90
2012,06,25,06,59,8.00
2012,06,25,07,00,8.00
2012,06,25,07,01,8.10
2012,06,25,07,02,8.20
2012,06,25,07,03,8.20
2012,06,25,07,04,8.20
2012,06,25,07,05,8.20
2012,06,25,07,06,8.30
2012,06,25,07,07,8.30
2012,06,25,07,08,8.30
2012,06,25,07,09,8.40
2012,06,25,07,10,8.40
2012,06,25,07,11,8.40
2012,06,25,07,12,8.40
2012,06,25,07,13,8.50
2012,06,25,07,14,8.50
2012,06,25,07,15,8.50
2012,06,25,07,16,8.50
2012,06,25,07,17,8.60
2012,06,25,07,18,8.60
2012,06,25,07,19,8.70
2012,06,25,07,20,8.70
2012,06,25,07,21,8.80
2012,06,25,07,22,8.80
2012,06,25,07,23,8.90
2012,06,25,07,24,9.00
2012,06,25,07,25,9.10
2012,06,25,07,26,9.20
2012,06,25,07,27,9.20
2012,06,25,07,28,9.20
2012,06,25,07,29,9.30
2012,06,25,07,30,9.30
2012,06,25,07,31,9.40
2012,06,25,07,32,9.40
2012,06,25,07,33,9.40
2012,06,25,07,34,9.50
2012,06,25,07,35,9.50
2012,06,25,07,36,9.60
2012,06,25,07,37,9.60
2012,06,25,07,38,9.70
2012,06,25,07,39,9.70
2012,06,25,07,40,9.80
2012,06,25,07,41,9.80
2012,06,25,07,42,9.90
2012,06,25,07,43,10.00
2012,06,25,07,44,10.10
2012,06,25,07,45,10.10
2012,06,25,07,46,10.20
2012,06,25,07,47,10.20
2012,06,25,07,48,10.30
2012,06,25,07,49,10.30
2012,06,25,07,50,10.40
2012,06,25,07,51,10.40
2012,06,25,07,52,10.50
2012,06,25,07,53,10.50
2012,06,25,07,54,10.60
2012,06,25,07,55,10.60
2012,06,25,07,56,10.70
2012,06,25,07,57,10.70
2012,06,25,07,58,10.70
2012,06,25,07,59,10.80
2012,06,25,08,00,10.80
2012,06,25,08,01,10.90
2012,06,25,08,02,11.00
2012,06,25,08,03,11.00
2012,06,25,08,04,11.10
2012,06,25,08,05,11.20
2012,06,25,08,06,11.20
2012,06,25,08,07,11.20
2012,06,25,08,08,11.30
2012,06,25,08,09,11.30
2012,06,25,08,10,11.30
2012,06,25,08,11,11.30
2012,06,25,08,12,11.30
2012,06,25,08,13,11.40
2012,06,25,08,14,11.40
2012,06,25,08,15,11.40
2012,06,25,08,16,11.50
2012,06,25,08,17,11.50
2012,06,25,08,18,11.60
2012,06,25,08,19,11.60
2012,06,25,08,20,11.70
2012,06,25,08,21,11.80
2012,06,25,08,22,11.90
2012,06,25,08,23,12.00
2012,06,25,08,24,12.10
2012,06,25,08,25,12.20
2012,06,25,08,26,12.20
2012,06,25,08,27,12.30
2012,06,25,08,28,12.30
2012,06,25,08,29,12.40
2012,06,25,08,30,12.40
2012,06,25,08,31,12.50
2012,06,25,08,32,12.50
2012,06,25,08,33,12.60
2012,06,25,08,34,12.60
2012,06,25,08,35,12.60
2012,06,25,08,36,12.60
2012,06,25,08,37,12.70
2012,06,25,08,38,12.70
2012,06,25,08,39,12.80
2012,06,25,08,40,12.80
2012,06,25,08,41,12.90
2012,06,25,08,42,12.90
2012,06,25,08,43,13.00
2012,06,25,08,44,13.10
2012,06,25,08,45,13.10
2012,06,25,08,46,13.20
2012,06,25,08,47,13.30
2012,06,25,08,48,13.30
2012,06,25,08,49,13.40
2012,06,25,08,50,13.50
2012,06,25,08,51,13.50
2012,06,25,08,52,13.60
2012,06,25,08,53,13.60
2012,06,25,08,54,13.70
2012,06,25,08,55,13.80
2012,06,25,08,56,13.80
2012,06,25,08,57,13.90
2012,06,25,08,58,14.00
2012,06,25,08,59,14.10
2012,06,25,09,00,14.20
2012,06,25,09,01,14.30
2012,06,25,09,02,14.30
2012,06,25,09,03,14.40
2012,06,25,09,04,14.40
2012,06,25,09,05,14.50
2012,06,25,09,06,14.60
2012,06,25,09,07,14.60
2012,06,25,09,08,14.60
2012,06,25,09,09,14.70
2012,06,25,09,10,14.80
2012,06,25,09,11,14.90
2012,06,25,09,12,15.00
2012,06,25,09,13,15.00
2012,06,25,09,14,15.10
2012,06,25,09,15,15.20
2012,06,25,09,16,15.20
2012,06,25,09,17,15.30
2012,06,25,09,18,15.30
2012,06,25,09,19,15.30
2012,06,25,09,20,15.20
2012,06,25,09,21,15.20
2012,06,25,09,22,15.10
2012,06,25,09,23,15.10
2012,06,25,09,24,15.20
2012,06,25,09,25,15.20
2012,06,25,09,26,15.30
2012,06,25,09,27,15.30
2012,06,25,09,28,15.20
2012,06,25,09,29,15.20
2012,06,25,09,30,15.00
2012,06,25,09,31,14.90
2012,06,25,09,32,14.80
2012,06,25,09,33,14.70
2012,06,25,09,34,14.50
2012,06,25,09,35,14.40
2012,06,25,09,36,14.30
2012,06,25,09,37,14.20
2012,06,25,09,38,14.10
2012,06,25,09,39,14.00
2012,06,25,09,40,14.00
2012,06,25,09,41,13.90
2012,06,25,09,42,13.90
2012,06,25,09,43,13.90
2012,06,25,09,44,13.80
2012,06,25,09,45,13.80
2012,06,25,09,46,13.80
2012,06,25,09,47,13.70
2012,06,25,09,48,13.70
2012,06,25,09,49,13.70
2012,06,25,09,50,13.70
2012,06,25,09,51,13.70
2012,06,25,09,52,13.80
2012,06,25,09,53,13.80
2012,06,25,09,54,13.80
2012,06,25,09,55,13.90
2012,06,25,09,56,13.90
2012,06,25,09,57,13.90
2012,06,25,09,58,13.90
2012,06,25,09,59,13.90
2012,06,25,10,00,13.90
2012,06,25,10,01,13.90
2012,06,25,10,02,13.90
2012,06,25,10,03,13.90
2012,06,25,10,04,13.90
2012,06,25,10,05,14.00
2012,06,25,10,06,14.00
2012,06,25,10,07,14.00
2012,06,25,10,08,14.00
2012,06,25,10,09,14.00
2012,06,25,10,10,14.10
2012,06,25,10,11,14.10
2012,06,25,10,12,14.20
2012,06,25,10,13,14.20
2012,06,25,10,14,14.20
2012,06,25,10,15,14.20
2012,06,25,10,16,14.10
2012,06,25,10,17,14.10
2012,06,25,10,18,14.00
2012,06,25,10,19,14.10
2012,06,25,10,20,14.20
2012,06,25,10,21,14.30
2012,06,25,10,22,14.40
2012,06,25,10,23,14.60
2012,06,25,10,24,14.70
2012,06,25,10,25,14.80
2012,06,25,10,26,14.80
2012,06,25,10,27,14.80
2012,06,25,10,28,14.70
2012,06,25,10,29,14.50
2012,06,25,10,30,14.30
2012,06,25,10,31,14.20
2012,06,25,10,32,14.00
2012,06,25,10,33,13.80
2012,06,25,10,34,13.70
2012,06,25,10,35,13.70
2012,06,25,10,36,13.70
2012,06,25,10,37,13.70
2012,06,25,10,38,13.70
2012,06,25,10,39,13.80
2012,06,25,10,40,13.90
2012,06,25,10,41,13.90
2012,06,25,10,42,13.90
2012,06,25,10,43,14.00
2012,06,25,10,44,14.10
2012,06,25,10,45,14.20
2012,06,25,10,46,14.30
2012,06,25,10,47,14.40
2012,06,25,10,48,14.40
2012,06,25,10,49,14.50
2012,06,25,10,50,14.50
2012,06,25,10,51,14.60
2012,06,25,10,52,14.60
2012,06,25,10,53,14.60
2012,06,25,10,54,14.70
2012,06,25,10,55,14.70
2012,06,25,10,56,14.80
2012,06,25,10,57,14.80
2012,06,25,10,58,14.80
2012,06,25,10,59,14.90
2012,06,25,11,00,14.90
2012,06,25,11,01,14.90
2012,06,25,11,02,15.00
2012,06,25,11,03,15.00
2012,06,25,11,04,14.90
2012,06,25,11,05,14.90
2012,06,25,11,06,14.90
2012,06,25,11,07,14.90
2012,06,25,11,08,14.90
2012,06,25,11,09,15.00
2012,06,25,11,10,15.10
2012,06,25,11,11,15.30
2012,06,25,11,12,15.40
2012,06,25,11,13,15.50
2012,06,25,11,14,15.50
2012,06,25,11,15,15.60
2012,06,25,11,16,15.60
2012,06,25,11,17,15.60
2012,06,25,11,18,15.70
2012,06,25,11,19,15.70
2012,06,25,11,20,15.70
2012,06,25,11,21,15.60
2012,06,25,11,22,15.60
2012,06,25,11,23,15.60
2012,06,25,11,24,15.50
2012,06,25,11,25,15.50
2012,06,25,11,26,15.50
2012,06,25,11,27,15.50
2012,06,25,11,28,15.60
2012,06,25,11,29,15.70
2012,06,25,11,30,15.80
2012,06,25,11,31,15.80
2012,06,25,11,32,15.90
2012,06,25,11,33,16.00
2012,06,25,11,34,16.10
2012,06,25,11,35,16.20
2012,06,25,11,36,16.20
2012,06,25,11,37,16.20
2012,06,25,11,38,16.20
2012,06,25,11,39,16.10
2012,06,25,11,40,16.10
2012,06,25,11,41,16.00
2012,06,25,11,42,15.90
2012,06,25,11,43,15.90
2012,06,25,11,44,15.90
2012,06,25,11,45,15.90
2012,06,25,11,46,15.90
2012,06,25,11,47,16.00
2012,06,25,11,48,16.00
2012,06,25,11,49,16.00
2012,06,25,11,50,16.00
2012,06,25,11,51,15.90
2012,06,25,11,52,15.90
2012,06,25,11,53,15.90
2012,06,25,11,54,15.90
2012,06,25,11,55,15.90
2012,06,25,11,56,15.90
2012,06,25,11,57,16.00
2012,06,25,11,58,16.00
2012,06,25,11,59,16.10
2012,06,25,12,00,16.10
2012,06,25,12,01,16.20
2012,06,25,12,02,16.20
2012,06,25,12,03,16.10
2012,06,25,12,04,16.10
2012,06,25,12,05,16.00
2012,06,25,12,06,15.80
2012,06,25,12,07,15.60
2012,06,25,12,08,15.40
2012,06,25,12,09,15.10
2012,06,25,12,10,14.90
2012,06,25,12,11,14.70
2012,06,25,12,12,14.70
2012,06,25,12,13,14.70
2012,06,25,12,14,14.80
2012,06,25,12,15,14.80
2012,06,25,12,16,14.80
2012,06,25,12,17,14.90
2012,06,25,12,18,14.90
2012,06,25,12,19,15.00
2012,06,25,12,20,15.10
2012,06,25,12,21,15.10
2012,06,25,12,22,15.20
2012,06,25,12,23,15.30
2012,06,25,12,24,15.30
2012,06,25,12,25,15.30
2012,06,25,12,26,15.30
2012,06,25,12,27,15.30
2012,06,25,12,28,15.20
2012,06,25,12,29,15.10
2012,06,25,12,30,15.00
2012,06,25,12,31,15.00
2012,06,25,12,32,15.00
2012,06,25,12,33,15.00
2012,06,25,12,34,14.90
2012,06,25,12,35,14.90
2012,06,25,12,36,14.90
2012,06,25,12,37,14.90
2012,06,25,12,38,14.80
2012,06,25,12,39,14.80
2012,06,25,12,40,14.80
2012,06,25,12,41,14.90
2012,06,25,12,42,14.90
2012,06,25,12,43,15.00
2012,06,25,12,44,15.10
2012,06,25,12,45,15.20
2012,06,25,12,46,15.30
2012,06,25,12,47,15.30
2012,06,25,12,48,15.40
2012,06,25,12,49,15.50
2012,06,25,12,50,15.50
2012,06,25,12,51,15.60
2012,06,25,12,52,15.60
2012,06,25,12,53,15.60
2012,06,25,12,54,15.70
2012,06,25,12,55,15.70
2012,06,25,12,56,15.70
2012,06,25,12,57,15.80
2012,06,25,12,58,15.80
2012,06,25,12,59,15.80
2012,06,25,13,00,15.90
2012,06,25,13,01,15.90
2012,06,25,13,02,15.90
2012,06,25,13,03,16.00
2012,06,25,13,04,16.10
2012,06,25,13,05,16.10
2012,06,25,13,06,16.20
2012,06,25,13,07,16.20
2012,06,25,13,08,16.30
2012,06,25,13,09,16.40
2012,06,25,13,10,16.40
2012,06,25,13,11,16.40
2012,06,25,13,12,16.40
2012,06,25,13,13,16.30
2012,06,25,13,14,16.30
2012,06,25,13,15,16.40
2012,06,25,13,16,16.40
2012,06,25,13,17,16.40
2012,06,25,13,18,16.50
2012,06,25,13,19,16.60
2012,06,25,13,20,16.60
2012,06,25,13,21,16.60
2012,06,25,13,22,16.70
2012,06,25,13,23,16.70
2012,06,25,13,24,16.70
2012,06,25,13,25,16.70
2012,06,25,13,26,16.80
2012,06,25,13,27,16.70
2012,06,25,13,28,16.70
2012,06,25,13,29,16.70
2012,06,25,13,30,16.70
2012,06,25,13,31,16.70
2012,06,25,13,32,16.70
2012,06,25,13,33,16.60
2012,06,25,13,34,16.40
2012,06,25,13,35,16.30
2012,06,25,13,36,16.30
2012,06,25,13,37,16.30
2012,06,25,13,38,16.30
2012,06,25,13,39,16.30
2012,06,25,13,40,16.30
2012,06,25,13,41,16.30
2012,06,25,13,42,16.30
2012,06,25,13,43,16.20
2012,06,25,13,44,16.20
2012,06,25,13,45,16.20
2012,06,25,13,46,16.20
2012,06,25,13,47,16.30
2012,06,25,13,48,16.40
2012,06,25,13,49,16.60
2012,06,25,13,50,16.60
2012,06,25,13,51,16.70
2012,06,25,13,52,16.80
2012,06,25,13,53,16.90
2012,06,25,13,54,17.00
2012,06,25,13,55,17.10
2012,06,25,13,56,17.20
2012,06,25,13,57,17.10
2012,06,25,13,58,16.90
2012,06,25,13,59,16.80
2012,06,25,14,00,16.80
2012,06,25,14,01,16.70
2012,06,25,14,02,16.70
2012,06,25,14,03,16.60
2012,06,25,14,04,16.60
2012,06,25,14,05,16.60
2012,06,25,14,06,16.60
2012,06,25,14,07,16.60
2012,06,25,14,08,16.70
2012,06,25,14,09,16.70
2012,06,25,14,10,16.70
2012,06,25,14,11,16.60
2012,06,25,14,12,16.60
2012,06,25,14,13,16.50
2012,06,25,14,14,16.40
2012,06,25,14,15,16.40
2012,06,25,14,16,16.40
2012,06,25,14,17,16.40
2012,06,25,14,18,16.30
2012,06,25,14,19,16.30
2012,06,25,14,20,16.30
2012,06,25,14,21,16.30
2012,06,25,14,22,16.30
2012,06,25,14,23,16.30
2012,06,25,14,24,16.30
2012,06,25,14,25,16.30
2012,06,25,14,26,16.30
2012,06,25,14,27,16.30
2012,06,25,14,28,16.30
2012,06,25,14,29,16.30
2012,06,25,14,30,16.40
2012,06,25,14,31,16.40
2012,06,25,14,32,16.40
2012,06,25,14,33,16.50
2012,06,25,14,34,16.50
2012,06,25,14,35,16.60
2012,06,25,14,36,16.60
2012,06,25,14,37,16.60
2012,06,25,14,38,16.60
2012,06,25,14,39,16.70
2012,06,25,14,40,16.70
2012,06,25,14,41,16.70
2012,06,25,14,42,16.80
2012,06,25,14,43,16.80
2012,06,25,14,44,16.90
2012,06,25,14,45,16.90
2012,06,25,14,46,16.90
2012,06,25,14,47,16.90
2012,06,25,14,48,16.90
2012,06,25,14,49,16.90
2012,06,25,14,50,16.90
2012,06,25,14,51,16.90
2012,06,25,14,52,16.90
2012,06,25,14,53,16.90
2012,06,25,14,54,17.00
2012,06,25,14,55,17.00
2012,06,25,14,56,17.10
2012,06,25,14,57,17.10
2012,06,25,14,58,17.10
2012,06,25,14,59,17.10
2012,06,25,15,00,17.10
2012,06,25,15,01,17.20
2012,06,25,15,02,17.20
2012,06,25,15,03,17.20
2012,06,25,15,04,17.20
2012,06,25,15,05,17.20
2012,06,25,15,06,17.20
2012,06,25,15,07,17.20
2012,06,25,15,08,17.20
2012,06,25,15,09,17.20
2012,06,25,15,10,17.20
2012,06,25,15,11,17.30
2012,06,25,15,12,17.30
2012,06,25,15,13,17.30
2012,06,25,15,14,17.30
2012,06,25,15,15,17.30
2012,06,25,15,16,17.30
2012,06,25,15,17,17.40
2012,06,25,15,18,17.40
2012,06,25,15,19,17.40
2012,06,25,15,20,17.50
2012,06,25,15,21,17.50
2012,06,25,15,22,17.40
2012,06,25,15,23,17.20
2012,06,25,15,24,17.00
2012,06,25,15,25,16.90
2012,06,25,15,26,16.70
2012,06,25,15,27,16.60
2012,06,25,15,28,16.50
2012,06,25,15,29,16.40
2012,06,25,15,30,16.40
2012,06,25,15,31,16.30
2012,06,25,15,32,16.20
2012,06,25,15,33,16.10
2012,06,25,15,34,16.10
2012,06,25,15,35,16.10
2012,06,25,15,36,16.00
2012,06,25,15,37,16.00
2012,06,25,15,38,16.10
2012,06,25,15,39,16.10
2012,06,25,15,40,16.10
2012,06,25,15,41,16.20
2012,06,25,15,42,16.20
2012,06,25,15,43,16.30
2012,06,25,15,44,16.30
2012,06,25,15,45,16.40
2012,06,25,15,46,16.50
2012,06,25,15,47,16.60
2012,06,25,15,48,16.60
2012,06,25,15,49,16.60
2012,06,25,15,50,16.60
2012,06,25,15,51,16.50
2012,06,25,15,52,16.40
2012,06,25,15,53,16.40
2012,06,25,15,54,16.40
2012,06,25,15,55,16.30
2012,06,25,15,56,16.30
2012,06,25,15,57,16.20
2012,06,25,15,58,16.20
2012,06,25,15,59,16.20
2012,06,25,16,00,16.20
2012,06,25,16,01,16.20
2012,06,25,16,02,16.10
2012,06,25,16,03,16.10
2012,06,25,16,04,16.10
2012,06,25,16,05,16.10
2012,06,25,16,06,16.20
2012,06,25,16,07,16.20
2012,06,25,16,08,16.20
2012,06,25,16,09,16.20
2012,06,25,16,10,16.30
2012,06,25,16,11,16.30
2012,06,25,16,12,16.30
2012,06,25,16,13,16.40
2012,06,25,16,14,16.40
2012,06,25,16,15,16.40
2012,06,25,16,16,16.40
2012,06,25,16,17,16.40
2012,06,25,16,18,16.40
2012,06,25,16,19,16.40
2012,06,25,16,20,16.40
2012,06,25,16,21,16.30
2012,06,25,16,22,16.30
2012,06,25,16,23,16.30
2012,06,25,16,24,16.30
2012,06,25,16,25,16.30
2012,06,25,16,26,16.40
2012,06,25,16,27,16.40
2012,06,25,16,28,16.40
2012,06,25,16,29,16.50
2012,06,25,16,30,16.50
2012,06,25,16,31,16.50
2012,06,25,16,32,16.60
2012,06,25,16,33,16.60
2012,06,25,16,34,16.60
2012,06,25,16,35,16.60
2012,06,25,16,36,16.60
2012,06,25,16,37,16.60
2012,06,25,16,38,16.50
2012,06,25,16,39,16.40
2012,06,25,16,40,16.40
2012,06,25,16,41,16.30
2012,06,25,16,42,16.30
2012,06,25,16,43,16.20
2012,06,25,16,44,16.20
2012,06,25,16,45,16.10
2012,06,25,16,46,16.00
2012,06,25,16,47,16.00
2012,06,25,16,48,15.90
2012,06,25,16,49,15.90
2012,06,25,16,50,15.90
2012,06,25,16,51,15.80
2012,06,25,16,52,15.70
2012,06,25,16,53,15.60
2012,06,25,16,54,15.60
2012,06,25,16,55,15.50
2012,06,25,16,56,15.40
2012,06,25,16,57,15.40
2012,06,25,16,58,15.40
2012,06,25,16,59,15.30
2012,06,25,17,00,15.30
2012,06,25,17,01,15.30
2012,06,25,17,02,15.30
2012,06,25,17,03,15.20
2012,06,25,17,04,15.10
2012,06,25,17,05,15.00
2012,06,25,17,06,14.90
2012,06,25,17,07,14.80
2012,06,25,17,08,14.70
2012,06,25,17,09,14.60
2012,06,25,17,10,14.60
2012,06,25,17,11,14.50
2012,06,25,17,12,14.40
2012,06,25,17,13,14.30
2012,06,25,17,14,14.20
2012,06,25,17,15,14.20
2012,06,25,17,16,14.10
2012,06,25,17,17,14.00
2012,06,25,17,18,14.00
2012,06,25,17,19,13.90
2012,06,25,17,20,13.90
2012,06,25,17,21,13.80
2012,06,25,17,22,13.80
2012,06,25,17,23,13.80
2012,06,25,17,24,13.80
2012,06,25,17,25,13.80
2012,06,25,17,26,13.80
2012,06,25,17,27,13.80
2012,06,25,17,28,13.80
2012,06,25,17,29,13.80
2012,06,25,17,30,13.80
2012,06,25,17,31,13.80
2012,06,25,17,32,13.80
2012,06,25,17,33,13.90
2012,06,25,17,34,13.90
2012,06,25,17,35,14.00
2012,06,25,17,36,14.00
2012,06,25,17,37,14.10
2012,06,25,17,38,14.20
2012,06,25,17,39,14.20
2012,06,25,17,40,14.20
2012,06,25,17,41,14.30
2012,06,25,17,42,14.30